Stations météo

Publicité
Bergerac, France (7530): Température de l'air & dewpoint: 11.08.2017 13:00:00 - 17.08.2017 13:00:00 (CEST)Bergerac, France (7530): Température de l'air 5cm: 11.08.2017 13:00:00 - 17.08.2017 13:00:00 (CEST)Bergerac, France (7530): Température de l'air -20cm & Température de l'air -100cm: 11.08.2017 13:00:00 - 17.08.2017 13:00:00 (CEST)Bergerac, France (7530): Vitesse du vent & gusts: 11.08.2017 13:00:00 - 17.08.2017 13:00:00 (CEST)Bergerac, France (7530): Direction du vent: 11.08.2017 13:00:00 - 17.08.2017 13:00:00 (CEST)Bergerac, France (7530): reduced air pressure: 11.08.2017 13:00:00 - 17.08.2017 13:00:00 (CEST)Bergerac, France (7530): visibility: 11.08.2017 13:00:00 - 17.08.2017 13:00:00 (CEST)Bergerac, France (7530): Ensoleillement: 11.08.2017 13:00:00 - 17.08.2017 13:00:00 (CEST)Bergerac, France (7530): Quantités de précipitations: 11.08.2017 13:00:00 - 17.08.2017 13:00:00 (CEST)
Date & Time tt [°C] td [°C] tt 5cm [°C] tt -20cm [°C] tt -100cm [°C] ff [km/h] ff [knt] fx [km/h] fx [knt] dd ppp [hPa] vv [km] sd [min] rr [mm]
17.08.2017 13:00:00 25,2 14,0 32,5 20,0 19,3 5 3 16 9 NW 1021,2 53 60 0,0
17.08.2017 12:00:00 24,0 14,7 30,8 20,0 19,3 5 3 15 8 NW 1021,7 20 60 0,0
17.08.2017 11:00:00 22,4 16,2 28,3 20,0 19,3 3 1 7 4 WSW 1022,0 52 60 0,0
17.08.2017 10:00:00 19,1 16,1 24,5 20,1 19,3 3 2 7 4 WNW 1022,0 59 60 0,0
17.08.2017 09:00:00 16,2 15,1 14,5 20,2 19,3 0 0 8 4 N 1021,9 33 60 0,0
17.08.2017 08:00:00 13,4 13,2 10,0 20,4 19,3 4 2 6 3 ENE 1021,6 20 22 0,0
17.08.2017 07:00:00 11,9 11,6 8,9 20,5 19,3 4 2 5 3 E 1021,5 14 0 0,0
17.08.2017 06:00:00 12,0 11,5 9,7 20,7 19,3 0 0 4 2 N 1021,2 0,5 0 0,0
17.08.2017 05:00:00 12,9 12,4 9,6 20,9 19,3 0 0 4 2 N 1021,4 5 0 0,0
17.08.2017 04:00:00 13,5 13,0 10,2 21,0 19,3 2 1 5 3 ENE 1021,5 13 0 0,0
17.08.2017 03:00:00 14,3 13,8 11,4 21,2 19,3 3 1 6 3 ENE 1021,3 18 0 0,0
17.08.2017 02:00:00 15,0 14,0 12,5 21,4 19,4 4 2 9 5 E 1021,6 40 0 0,2
17.08.2017 01:00:00 16,9 14,7 13,1 21,5 19,3 8 4 10 5 WSW 1022,2 60 0 0,0
17.08.2017 00:00:00 15,8 14,8 12,7 21,6 19,3 0 0 7 4 N 1022,6 47 0 0,0
16.08.2017 23:00:00 16,7 15,2 13,0 21,7 19,3 3 2 6 3 NE 1022,1 28 0 0,0
16.08.2017 22:00:00 18,0 15,4 14,7 21,7 19,3 4 2 7 4 SSE 1021,9 50 0 0,0
16.08.2017 21:00:00 21,7 14,8 17,6 21,7 19,3 4 2 11 6 S 1021,5 60 32 0,0
16.08.2017 20:00:00 23,9 15,1 23,8 21,6 19,3 6 4 16 9 WSW 1021,4 52 6 0,0
16.08.2017 19:00:00 24,2 15,1 24,9 21,5 19,3 9 5 21 11 W 1021,4 60 1 0,0
16.08.2017 18:00:00 24,8 15,4 28,1 21,3 19,3 10 5 18 10 W 1021,5 58 57 0,0
16.08.2017 17:00:00 24,3 15,0 24,7 21,2 19,3 10 5 18 10 WNW 1021,5 60 16 0,0
16.08.2017 16:00:00 23,0 16,1 24,2 21,0 19,3 11 6 21 11 WNW 1021,5 60 0 0,0
16.08.2017 15:00:00 23,4 16,7 25,8 20,8 19,3 14 7 18 10 NW 1021,7 58 0 0,0
16.08.2017 14:00:00 24,0 17,0 28,5 20,6 19,3 6 3 18 10 WSW 1021,6 50 10 0,0
16.08.2017 13:00:00 23,1 17,3 25,0 20,5 19,3 9 5 19 10 WNW 1022,0 55 33 0,0
16.08.2017 12:00:00 21,0 17,6 22,6 20,4 19,3 9 5 14 8 WNW 1022,1 48 0 0,0
16.08.2017 11:00:00 19,7 16,9 22,1 20,4 19,3 5 3 8 5 WNW 1021,8 46 3 0,0
16.08.2017 10:00:00 18,6 16,2 19,1 20,5 19,3 0 0 7 4 N 1021,7 54 1 0,0
16.08.2017 09:00:00 17,2 16,2 16,9 20,6 19,3 2 1 4 2 WNW 1021,8 47 0 0,0
16.08.2017 08:00:00 16,5 16,2 16,0 20,7 19,3 4 2 8 4 - 1021,5 10 0 0,0
16.08.2017 07:00:00 16,1 15,8 14,1 20,8 19,3 7 4 9 5 W 1021,2 18 0 0,0
16.08.2017 06:00:00 15,4 15,1 12,8 20,9 19,3 6 3 9 5 W 1020,9 13 0 0,0
16.08.2017 05:00:00 15,9 15,4 14,6 21,1 19,3 7 4 9 5 WSW 1021,0 15 0 0,0
16.08.2017 04:00:00 16,3 15,8 14,2 21,2 19,3 6 3 11 6 WSW 1021,1 10 0 0,0
16.08.2017 03:00:00 17,3 16,5 16,4 21,3 19,2 10 5 13 7 WNW 1021,2 19 0 0,0
16.08.2017 02:00:00 18,7 17,9 18,1 21,4 19,3 6 3 9 5 W 1021,8 21 0 0,0
16.08.2017 01:00:00 18,4 17,9 16,1 21,5 19,3 4 2 5 3 SSW 1022,0 14 0 0,0
16.08.2017 00:00:00 18,7 17,7 16,0 21,5 19,3 2 1 9 5 SW 1021,7 1,7 0 0,0
15.08.2017 23:00:00 19,9 18,0 19,0 21,5 19,2 3 1 9 5 WNW 1021,3 31 0 0,0
15.08.2017 22:00:00 20,3 18,1 19,6 21,5 19,3 6 4 19 10 W 1021,1 35 0 0,0
15.08.2017 21:00:00 21,1 19,2 20,0 21,5 19,2 4 2 7 4 NNW 1020,1 20 19 0,0
15.08.2017 20:00:00 21,8 18,8 22,2 21,5 19,2 4 2 6 3 NW 1020,0 27 0 0,0
15.08.2017 19:00:00 22,1 19,8 22,7 21,4 19,2 3 2 6 3 N 1019,9 20 0 0,0
15.08.2017 18:00:00 22,2 19,7 23,3 21,4 19,2 4 2 12 6 NNW 1020,0 19 0 0,0
15.08.2017 17:00:00 21,5 20,3 20,9 21,4 19,2 5 3 16 8 WNW 1019,6 15 0 0,6
15.08.2017 16:00:00 21,5 20,0 20,8 21,4 19,2 6 4 17 9 NW 1019,5 10 0 0,6
15.08.2017 15:00:00 22,3 19,5 22,5 21,4 19,2 9 5 18 10 E 1018,9 19 0 0,0
15.08.2017 14:00:00 21,8 19,7 22,0 21,3 19,2 11 6 20 11 W 1019,5 26 0 0,0
15.08.2017 13:00:00 22,4 20,3 21,0 21,3 19,2 15 8 34 19 NW 1018,5 19 0 0,0
15.08.2017 12:00:00 21,1 19,7 20,5 21,3 19,2 4 2 18 10 W 1019,4 14 0 0,2
15.08.2017 11:00:00 21,9 19,1 21,8 21,3 19,2 2 1 16 8 SW 1018,6 16 5 0,0
15.08.2017 10:00:00 21,1 19,4 20,8 21,4 19,2 6 3 18 10 W 1018,8 18 8 0,0
15.08.2017 09:00:00 20,2 19,4 19,1 21,5 19,2 6 4 21 11 W 1018,1 15 0 0,0
15.08.2017 08:00:00 19,7 18,2 18,9 21,6 19,2 5 3 14 8 SW 1017,5 21 0 0,0
15.08.2017 07:00:00 20,3 17,3 19,0 21,7 19,2 10 5 46 25 W 1017,3 38 0 0,0
15.08.2017 06:00:00 20,2 17,8 - - - 24 13 41 22 SE 1014,7 40 - 0,6
15.08.2017 05:00:00 20,6 16,8 18,4 21,9 19,2 11 6 23 12 S 1017,1 10 0 0,8
15.08.2017 04:00:00 21,7 16,9 18,9 22,1 19,2 17 9 40 22 WSW 1016,9 56 0 0,0
15.08.2017 03:00:00 20,1 18,0 18,7 22,1 19,2 9 5 22 12 ENE 1016,0 40 0 0,2
15.08.2017 02:00:00 21,6 17,0 18,8 22,3 19,2 9 5 47 26 S 1017,4 6 0 1,4
15.08.2017 01:00:00 24,7 17,9 21,1 22,4 19,2 16 9 43 23 SSW 1017,4 22 0 0,2
15.08.2017 00:00:00 24,7 16,1 - - - 5 3 9 5 ENE 1014,4 55 - 0,0
14.08.2017 23:00:00 26,2 15,3 22,1 22,5 19,2 4 2 14 7 ESE 1013,3 60 0 0,0
14.08.2017 22:00:00 26,7 15,1 22,6 22,4 19,2 9 5 19 10 E 1012,8 60 0 0,0
14.08.2017 21:00:00 29,6 15,3 24,6 22,4 19,2 8 5 16 9 ESE 1012,2 60 0 0,0
14.08.2017 20:00:00 31,4 15,4 29,1 22,1 19,1 8 5 25 14 SE 1011,8 56 42 0,0
14.08.2017 19:00:00 33,8 15,3 37,1 21,9 19,1 12 7 25 13 SSE 1011,9 60 60 0,0
14.08.2017 18:00:00 34,1 13,5 38,4 21,6 19,1 16 9 32 18 SSE 1012,2 56 60 0,0
14.08.2017 17:00:00 34,2 14,7 38,7 21,2 19,1 15 8 33 18 SE 1012,5 48 60 0,0
14.08.2017 16:00:00 33,7 15,2 39,2 20,8 19,2 16 8 29 16 SSE 1013,0 57 60 0,0
14.08.2017 15:00:00 32,8 17,0 38,3 20,5 19,1 12 6 27 15 SE 1013,6 60 60 0,0
14.08.2017 14:00:00 31,2 16,8 37,4 20,2 19,1 12 7 24 13 SSE 1014,4 60 60 0,0
14.08.2017 13:00:00 29,8 15,9 34,9 20,0 19,1 13 7 25 14 SE 1014,9 60 60 0,0
14.08.2017 12:00:00 27,8 18,5 31,6 19,9 19,1 8 4 18 10 ENE 1015,3 60 60 0,0
14.08.2017 11:00:00 24,7 18,2 28,1 19,9 19,1 10 6 15 8 NE 1015,9 35 58 0,0
14.08.2017 10:00:00 21,3 16,7 18,8 20,0 19,1 5 3 14 8 E 1016,4 60 53 0,0
14.08.2017 09:00:00 17,5 15,8 15,4 20,1 19,2 8 5 11 6 ENE 1016,4 37 52 0,0
14.08.2017 08:00:00 14,4 14,2 10,3 20,3 19,1 5 3 7 4 ENE 1016,6 29 26 0,0
14.08.2017 07:00:00 12,1 11,8 9,9 20,5 19,1 4 2 6 3 NE 1016,7 20 0 0,0
14.08.2017 06:00:00 13,2 12,9 9,5 20,7 19,1 4 2 9 5 ENE 1016,8 4,4 0 0,2
14.08.2017 05:00:00 12,9 12,6 10,8 20,8 19,1 7 4 9 5 E 1017,2 20 0 0,0
14.08.2017 04:00:00 13,1 12,8 10,0 21,0 19,1 5 3 7 4 ENE 1017,3 18 0 0,0
14.08.2017 03:00:00 13,3 12,8 9,9 21,2 19,1 4 2 7 4 ENE 1017,4 17 0 0,0
14.08.2017 02:00:00 14,5 14,0 10,9 21,4 19,2 2 1 5 3 ENE 1017,8 20 0 0,0
14.08.2017 01:00:00 15,1 14,3 11,4 21,5 19,1 0 0 4 2 N 1018,2 29 0 0,0
14.08.2017 00:00:00 16,0 14,7 11,9 21,6 19,2 2 1 3 2 E 1018,5 36 0 0,0
13.08.2017 23:00:00 17,3 14,9 13,1 21,7 19,2 0 0 2 1 N 1018,6 60 0 0,0
13.08.2017 22:00:00 19,5 15,4 14,3 21,7 19,2 0 0 6 3 N 1018,4 60 0 0,0
13.08.2017 21:00:00 23,7 14,7 18,8 21,6 19,2 5 3 12 6 NNE 1018,1 60 36 0,0
13.08.2017 20:00:00 25,6 14,4 28,0 21,4 19,2 8 5 16 9 NNE 1018,2 55 60 0,0
13.08.2017 19:00:00 26,3 14,7 30,0 21,2 19,2 11 6 22 12 N 1018,3 57 57 0,0
13.08.2017 18:00:00 26,9 15,9 28,7 20,8 19,2 12 7 26 14 N 1018,7 51 49 0,0
13.08.2017 17:00:00 27,4 15,1 34,1 20,4 19,2 8 5 23 12 NW 1019,0 60 60 0,0
13.08.2017 16:00:00 26,1 14,2 28,8 20,0 19,2 8 4 25 14 NNE 1019,5 25 48 0,0
13.08.2017 15:00:00 27,3 15,0 32,7 19,6 19,2 4 2 16 8 SE 1020,0 56 60 0,0
13.08.2017 14:00:00 25,7 13,2 33,0 19,4 19,2 7 4 17 9 NNW 1020,5 17 57 0,0
13.08.2017 13:00:00 25,1 11,3 29,3 19,1 19,2 5 3 13 7 NW 1021,1 43 50 0,0
13.08.2017 12:00:00 23,5 13,4 30,9 19,1 19,2 5 3 14 7 W 1021,6 60 60 0,0
13.08.2017 11:00:00 22,0 14,6 26,3 19,0 19,2 2 1 8 4 NNE 1021,9 35 60 0,0
13.08.2017 10:00:00 19,5 14,9 23,8 19,1 19,2 0 0 6 3 N 1021,8 32 57 0,0
13.08.2017 09:00:00 17,0 14,5 15,7 19,2 19,2 0 0 3 2 N 1021,9 27 60 0,0
13.08.2017 08:00:00 13,4 12,9 8,7 19,4 19,2 2 1 5 3 ENE 1021,7 15 28 0,0
13.08.2017 07:00:00 11,4 10,8 8,5 19,5 19,2 0 0 3 2 N 1021,7 3,4 0 0,0
13.08.2017 06:00:00 11,9 11,1 8,9 19,7 19,2 0 0 3 2 N 1021,7 6 0 0,0
13.08.2017 05:00:00 12,7 11,8 9,4 19,8 19,2 0 0 2 1 N 1021,8 13 0 0,0
13.08.2017 04:00:00 14,0 12,7 10,8 19,9 19,2 0 0 6 3 N 1022,1 36 0 0,0
13.08.2017 03:00:00 14,8 12,5 11,2 20,0 19,3 4 2 7 4 W 1022,2 42 0 0,0
13.08.2017 02:00:00 15,6 13,4 12,3 20,1 19,3 0 0 8 4 N 1022,6 39 0 0,0
13.08.2017 01:00:00 16,9 13,6 14,6 20,2 19,3 5 3 7 4 WSW 1022,9 46 0 0,0
13.08.2017 00:00:00 17,2 14,7 15,3 20,2 19,3 4 2 18 10 SSW 1023,0 39 0 0,0
12.08.2017 23:00:00 17,1 15,1 15,1 20,2 19,3 5 3 6 3 ENE 1022,9 42 0 0,0
12.08.2017 22:00:00 18,3 14,0 15,8 20,2 19,3 0 0 5 3 N 1022,8 50 0 0,0
12.08.2017 21:00:00 20,5 14,6 18,1 20,1 19,3 3 2 5 3 SE 1022,4 60 0 0,0
12.08.2017 20:00:00 22,0 13,9 22,0 19,9 19,3 4 2 21 11 ESE 1022,5 17 1 0,0
12.08.2017 19:00:00 23,6 12,6 26,1 19,6 19,3 6 3 18 10 WNW 1022,4 54 46 0,0
12.08.2017 18:00:00 24,3 12,9 29,0 19,4 19,3 8 4 15 8 WNW 1022,7 60 56 0,0
12.08.2017 17:00:00 23,0 12,3 24,8 19,1 19,3 7 4 18 10 NW 1023,3 19 31 0,0
12.08.2017 16:00:00 22,2 12,2 25,8 18,9 19,3 7 4 21 11 W 1023,5 51 21 0,0
12.08.2017 15:00:00 21,7 12,8 25,6 18,7 19,3 6 3 16 9 WNW 1024,1 20 5 0,0
12.08.2017 14:00:00 20,7 11,9 23,5 18,5 19,3 6 4 18 10 SW 1024,5 47 18 0,0
12.08.2017 13:00:00 19,8 12,5 23,2 18,3 19,3 4 2 16 9 NNW 1025,1 60 0 0,0
12.08.2017 12:00:00 19,1 12,4 21,4 18,3 19,3 6 4 11 6 N 1025,1 59 26 0,0
12.08.2017 11:00:00 18,8 13,0 19,9 18,3 19,3 3 2 8 4 SE 1025,1 53 30 0,0
12.08.2017 10:00:00 15,1 12,4 14,4 18,4 19,4 3 2 8 4 N 1024,9 20 33 0,0
12.08.2017 09:00:00 11,9 10,8 10,6 18,6 19,4 3 2 6 4 ENE 1024,9 30 49 0,0
12.08.2017 08:00:00 9,3 9,2 - - - 4 2 8 4 ENE 1024,8 11 - -
12.08.2017 07:00:00 7,4 7,1 4,2 18,9 19,4 5 3 7 4 E 1024,3 9 0 0,0
12.08.2017 06:00:00 7,7 7,4 4,1 19,1 19,4 3 1 6 3 ESE 1024,2 8 0 0,2
12.08.2017 05:00:00 7,9 7,6 4,8 19,3 19,4 6 3 8 4 E 1024,3 7 0 0,0
12.08.2017 04:00:00 8,5 8,1 4,5 19,4 19,4 3 2 6 3 ENE 1024,7 2,4 0 0,0
12.08.2017 03:00:00 8,8 8,0 5,0 19,6 19,4 0 0 6 3 N 1024,4 15 0 0,0
12.08.2017 02:00:00 10,4 9,0 6,4 19,8 19,4 3 2 6 3 SSW 1024,6 41 0 0,0
12.08.2017 01:00:00 11,7 9,3 6,2 19,9 19,4 3 1 8 5 W 1024,7 53 0 0,0
12.08.2017 00:00:00 13,1 9,0 9,2 20,1 19,5 7 4 11 6 WSW 1024,8 60 0 0,0
11.08.2017 23:00:00 13,6 9,0 9,6 20,2 19,4 3 2 15 8 WSW 1024,8 19 0 0,0
11.08.2017 22:00:00 15,6 8,8 10,6 20,2 19,5 11 6 16 9 WNW 1024,4 59 0 0,0
11.08.2017 21:00:00 18,3 9,4 15,3 20,2 19,5 8 4 24 13 NW 1023,6 60 33 0,0
11.08.2017 20:00:00 21,3 9,8 19,3 20,0 19,5 10 6 19 10 NW 1023,2 55 23 0,0
11.08.2017 19:00:00 20,6 8,9 20,4 19,8 19,5 14 7 27 14 NW 1022,9 60 31 0,0
11.08.2017 18:00:00 22,7 9,5 24,7 19,6 19,5 14 7 27 14 W 1023,1 20 55 0,0
11.08.2017 17:00:00 22,4 11,2 22,8 19,4 19,5 13 7 21 11 NW 1023,3 59 28 0,0
11.08.2017 16:00:00 21,6 11,3 21,9 19,2 19,5 11 6 22 12 NNW 1023,5 55 25 0,0
11.08.2017 15:00:00 20,4 12,4 23,5 19,0 19,5 11 6 25 14 N 1023,7 57 1 0,0
11.08.2017 14:00:00 20,1 12,6 24,2 18,8 19,5 13 7 30 16 NNW 1023,6 41 25 0,0
11.08.2017 13:00:00 19,8 12,8 24,1 18,7 19,5 15 8 31 17 NW 1023,9 27 44 0,0

tt = Température de l'air
td = dewpoint
tt 5cm = Température de l'air 5cm
tt -20cm = Température de l'air -20cm
tt -100cm = Température de l'air -100cm
ff = Vitesse du vent
fx = gusts
dd = Direction du vent
ppp = reduced air pressure
vv = visibility
sd = Ensoleillement
rr = Quantités de précipitations

stations d'obs. à proximité